ONEWEB-0013, 45131

Orbit data source: Space-Track

ONEWEB-0013, 45131 is a payload satellite owned by One Web (UK) in LEO that was launched on Thu, 06 Feb 2020 UTC via a SOYUZ-2-1B launch vehicle from the Tyuratam Missile And Space Complex (TTMTR). Payload-class satellites include a variety of spacecraft equipped with specific instruments for various scientific and technological missions. These include communications satellites like Starlink; space stations such as the ISS; scientific satellites like the Hubble; Earth observation satellites from companies like Planet Labs, Umbra, and HawkEye 360; GPS; miniature CubeSats for education and research; and military/defense satellites.

Loading next visibility...
Identifier
45131, 2020-008A
Orbit
LEO
Last TLE update
12 hours ago
Origin
Manufacturer
One Web
Mission
Operational Commercial Communications
Bus & Motor
ARROW, Unknown motor
Mass
148 kg wet, ~140 kg dry
Launch date (UTC)
2020-02-06 (5 years ago)
Launch vehicle
SOYUZ-2-1B
Launch site
Tyuratam Missile And Space Complex (TTMTR)
Object type
Payload
Rocket body
Debris
Shape & HBR
Trap Box + 2 Pan, 5 m
Radar Cross Section
2.957 m², Large (>1 m²)

Expand to show TLE details & history

TLE from 12 hours ago
0 ONEWEB-0013
1 45131U 20008A   25181.90525534  .00000806  00000-0  23030-2 0  9998
2 45131  87.8563 123.7302 0001413 105.5295 254.5988 13.09425990260097
Epoch: 2025-06-30T21:43Z
TLE epoch observation values (Epoch: 2025-06-30T21:43:34.061Z)
Latitude
Longitude
-121.37008°
Altitude
1,228.552 km
Speed
7.24 km/s
True Right ascension
08h 14m 55s
True Declination
0° 00' 00"
Sunlit
Object was in daylight at epoch
Visualization orbit readout
Latitude
-84.41853°
Longitude
80.92894°
Altitude
1,255.043 km
Speed
7.227 km/s
Apparent Right ascension
09h 42m 52s
Apparent Declination
-70° 22' 08"
Sunlit
Object is in daylight
Visualization observer readout
Local Sidereal Time
21:43:03
Azimuth
179.969° S
Elevation
-59.547°
Doppler factor
1
Orbital elements
Apogee altitude
1,223.576 km
Perigee altitude
1,221.428 km
Semi-major axis
7,600.639 km
Eccentricity
0.00014
Inclination
87.8563°
RAAN
123.7302°
Arg. of periapsis
105.5295°
True anomaly
Unknown
Mean anomaly
254.5988°
Eccentric anomaly
Unknown
Mean motion
3.27543 °/min
Orbital period
109.91 mins
BSTAR
0.002303
Loading maneuver chart data...
Loading SW <> Apogee altitude chart data...
Loading historical data...
Loading historical data...
Loading historical data...
Loading historical data...
Loading historical data...
Loading historical data...
Loading historical data...

ONEWEB-0013 Visibility forecast

Observer location: undefined°, undefined°

Span
Click to sort rows by Start time (UTC) header in descending order
Start Az.
Max El. time (UTC)
Max El. Az.
Max El.
End time (UTC)
End Az.
13 mins2025-07-01 19:49:40.121Z150.846° SSE2025-07-01 19:56:40.121Z75.21° E35.124°2025-07-01 20:02:40.121Z14.895° NNE
11 mins2025-07-01 21:41:40.121Z226.934° WSW2025-07-01 21:46:40.121Z282.525° WNW28.276°2025-07-01 21:52:40.121Z340.507° N
11 mins2025-07-02 07:21:40.121Z23.477° NE2025-07-02 07:26:40.121Z80.621° E30.852°2025-07-02 07:32:40.121Z143.4° SSE
11 mins2025-07-02 09:11:40.121Z337.894° N2025-07-02 09:16:40.121Z280.058° WNW32.671°2025-07-02 09:22:40.121Z215.989° SW
|